Simultaneous Nadir Overpasses (SNOs) Predictions

Prediction of SNOs between METOP-B and NPP Satellite Orbit:

Table of predicted SNOs for the next 14.0 days since TLE Epoch: 2/8/2016
Index Date (METOP-B) Time (METOP-B) Lat,Lon (METOP-B) SZA (METOP-B ) Date (NPP) Time (NPP) Lat,Lon (NPP) SZA (NPP ) Distance(km) Time Diff (sec)
1 02/14/2016 23:37:25 73.63, 179.22 86.72 02/14/2016 23:36:18 73.61, 176.37 86.88 89.41 67
2 02/15/2016 00:28:09 -73.51, -13.73 93.40 02/15/2016 00:27:00 -73.52, -16.10 93.24 75.08 69
3 02/15/2016 01:18:53 73.30, 153.14 86.41 02/15/2016 01:17:42 73.32, 151.66 86.53 47.37 71
4 02/15/2016 02:09:36 -73.23, -39.68 93.67 02/15/2016 02:08:24 -73.23, -40.83 93.59 36.67 72
5 02/15/2016 03:00:20 73.02, 127.19 86.14 02/15/2016 02:59:06 73.02, 126.93 86.18 8.77 74
6 02/15/2016 03:51:03 -72.95, -65.62 93.93 02/15/2016 03:49:48 -72.94, -65.57 93.93 2.58 75
7 02/15/2016 04:41:43 72.94, 101.69 86.05 02/15/2016 04:40:34 72.93, 101.75 86.06 2.15 69
8 02/15/2016 05:32:25 -72.93, -91.02 93.98 02/15/2016 05:31:18 -72.95, -90.96 93.95 2.81 67
9 02/15/2016 06:23:04 72.97, 76.40 86.05 02/15/2016 06:22:04 72.94, 76.35 86.04 3.12 60
10 02/15/2016 07:13:46 -72.95,-116.31 93.98 02/15/2016 07:12:48 -72.95,-116.36 93.96 1.65 58
11 02/15/2016 08:04:26 72.94, 51.00 86.00 02/15/2016 08:03:34 72.95, 50.96 86.03 2.02 52
12 02/15/2016 08:55:08 -72.92,-141.71 94.03 02/15/2016 08:54:17 -72.91,-141.64 94.03 2.26 51
13 02/15/2016 09:45:48 72.91, 25.61 85.95 02/15/2016 09:45:03 72.91, 25.67 85.96 2.11 45
14 02/15/2016 10:36:29 -72.95,-167.00 94.04 02/15/2016 10:35:47 -72.92,-167.04 94.05 2.94 42
15 02/15/2016 11:27:09 72.94, 0.32 85.95 02/15/2016 11:26:33 72.92, 0.28 85.94 2.18 36
16 02/15/2016 12:17:51 -72.92, 167.61 94.08 02/15/2016 12:17:17 -72.93, 167.57 94.06 1.93 34
17 02/15/2016 13:08:31 72.91, -25.08 85.90 02/15/2016 13:08:03 72.93, -25.12 85.93 2.63 28
18 02/15/2016 13:59:13 -72.89, 142.21 94.13 02/15/2016 13:58:46 -72.89, 142.28 94.13 2.28 27
19 02/15/2016 14:49:53 72.88, -50.48 85.85 02/15/2016 14:49:32 72.89, -50.40 85.86 2.49 21
20 02/15/2016 15:40:34 -72.92, 116.92 94.13 02/15/2016 15:40:16 -72.90, 116.89 94.14 2.03 18
21 02/15/2016 16:31:14 72.90, -75.77 85.85 02/15/2016 16:31:02 72.90, -75.80 85.85 1.30 12
22 02/15/2016 17:21:56 -72.89, 91.53 94.18 02/15/2016 17:21:46 -72.91, 91.49 94.16 2.56 10
23 02/15/2016 18:12:36 72.88,-101.16 85.80 02/15/2016 18:12:32 72.91,-101.19 85.83 3.43 4
24 02/15/2016 19:03:18 -72.86, 66.13 94.23 02/15/2016 19:03:15 -72.87, 66.21 94.23 2.65 3
25 02/15/2016 19:53:58 72.85,-126.56 85.75 02/15/2016 19:54:01 72.87,-126.48 85.76 3.15 3
26 02/15/2016 20:44:39 -72.88, 40.84 94.23 02/15/2016 20:44:45 -72.88, 40.81 94.24 1.17 6
27 02/15/2016 21:35:19 72.87,-151.85 85.75 02/15/2016 21:35:31 72.88,-151.87 85.75 0.80 12
28 02/15/2016 22:26:01 -72.86, 15.44 94.28 02/15/2016 22:26:15 -72.89, 15.42 94.25 3.34 14
29 02/15/2016 23:16:41 72.85,-177.25 85.70 02/15/2016 23:17:00 72.83,-177.16 85.68 3.11 19
30 02/16/2016 00:07:23 -72.83, -9.95 94.33 02/16/2016 00:07:44 -72.85, -9.87 94.32 3.25 21
31 02/16/2016 00:58:02 72.87, 157.46 85.70 02/16/2016 00:58:30 72.84, 157.44 85.67 3.00 28
32 02/16/2016 01:48:44 -72.85, -35.24 94.33 02/16/2016 01:49:14 -72.85, -35.26 94.34 0.61 30
33 02/16/2016 02:39:24 72.84, 132.07 85.65 02/16/2016 02:40:00 72.85, 132.05 85.65 1.26 36
34 02/16/2016 03:30:06 -72.83, -60.64 94.38 02/16/2016 03:30:43 -72.81, -60.55 94.41 3.28 37
35 02/16/2016 04:20:46 72.82, 106.67 85.60 02/16/2016 04:21:29 72.81, 106.76 85.58 3.06 43
36 02/16/2016 05:11:27 -72.85, -85.93 94.38 02/16/2016 05:12:13 -72.82, -85.94 94.42 3.06 46
37 02/16/2016 06:02:07 72.84, 81.38 85.60 02/16/2016 06:02:59 72.82, 81.37 85.57 2.00 52
38 02/16/2016 06:52:49 -72.82,-111.33 94.43 02/16/2016 06:53:43 -72.83,-111.34 94.44 1.09 54
39 02/16/2016 07:43:29 72.81, 55.98 85.55 02/16/2016 07:44:29 72.83, 55.97 85.56 2.15 60
40 02/16/2016 08:34:11 -72.80,-136.72 94.48 02/16/2016 08:35:12 -72.79,-136.63 94.51 3.21 61
41 02/16/2016 09:24:51 72.78, 30.59 85.50 02/16/2016 09:25:58 72.79, 30.69 85.49 3.31 67
42 02/16/2016 10:15:32 -72.82,-162.01 94.48 02/16/2016 10:16:42 -72.80,-162.02 94.52 2.12 70
43 02/16/2016 11:06:14 72.71, 5.09 85.41 02/16/2016 11:07:27 72.75, 5.40 85.42 11.29 73
44 02/16/2016 11:56:57 -72.64, 172.28 94.66 02/16/2016 11:58:10 -72.71, 172.80 94.64 18.76 73
45 02/16/2016 12:47:41 72.42, -20.82 85.14 02/16/2016 12:48:51 72.45, -19.38 85.07 48.65 70
46 02/16/2016 13:38:24 -72.36, 146.38 94.93 02/16/2016 13:39:34 -72.41, 148.02 94.99 55.59 70
47 02/16/2016 14:29:09 72.09, -46.81 84.83 02/16/2016 14:30:15 72.15, -44.17 84.72 90.61 66




NCC Satellite Simultaneous Nadir Overpasses (SNOs) P
